[[{"header":{"parameterUnit":"m.s-1","parameterCategory":1,"la1":30.2991,"la2":30.254,"lo1":-89.0895,"lo2":-89.0444,"dy":0.0017,"dx":0.0017,"nx":28,"ny":28,"refTime":"2025-07-30T21:00:00:Z","depth":0,"parameterNumber":2,"parameterNumberName":"U-component_of_WINDS"},"data":[0,0,0,0,0,0,0,0,0,0,0,0,0,0,0,0,0,0,0,0,0,0,0,0,0,0,0,0,0,0,0,0,0,0,0,0,0,0,0,0,0,0,0,0,0,0,0,0,0,0,0,0,0,0,0,0,0,0,4.7253,4.7254,0,4.7407,4.7409,4.741,4.7352,4.7348,4.7345,4.7341,4.7502,4.7509,4.7517,0,0,0,0,0,0,0,0,0,0,0,0,0,4.6909,4.6915,4.7252,4.7254,4.7256,4.7407,4.7409,4.7411,4.7352,4.7348,4.7344,4.734,4.7499,4.7508,4.7517,0,0,0,0,0,0,0,0,0,0,0,0,0,4.706,4.6917,4.7252,4.7245,4.7246,4.7406,4.7409,4.7411,4.7353,4.7348,4.7343,4.7338,4.7496,4.7507,4.7519,4.7695,0,0,4.7553,4.7558,0,0,0,0,0,0,0,0,4.7052,4.7073,4.7244,4.7246,4.7247,4.7355,4.7346,4.7507,4.7355,4.7313,4.7341,4.7335,4.7457,4.7472,4.7512,4.7703,4.771,4.7554,4.7561,4.7566,4.7569,0,0,0,0,0,0,0,4.7041,4.7066,4.7314,4.7247,4.7249,4.7235,4.7251,4.7376,4.7413,4.7316,4.7312,4.7331,4.7457,4.7501,4.7516,4.7712,4.7554,4.7564,4.7571,4.7576,4.8054,4.8059,0,0,0,0,0,0,4.703,4.7057,4.7309,4.7318,4.7134,4.7245,4.7263,4.7326,4.7412,4.7419,4.7335,4.7328,4.7485,4.7502,4.7521,4.7732,4.7566,4.7577,4.7583,4.8048,4.8055,4.8061,0,0,0,0,0,0,4.7023,4.7053,4.7302,4.7187,4.7218,4.7257,4.7328,4.7331,4.7376,4.7426,4.7433,4.7374,4.7481,4.7505,4.7652,4.7737,4.7582,4.7592,4.8041,4.805,4.8058,4.8157,0,0,0,0,0,0,4.7013,4.7051,4.7118,4.7189,4.7224,4.7431,4.7333,4.7338,4.7395,4.7387,4.7464,4.7472,4.7479,4.7635,4.7663,4.775,4.7601,4.8034,4.8045,4.8056,4.8146,4.8168,4.8187,0,0,0,0,0,4.7001,4.714,4.7122,4.7152,4.7309,4.7436,4.7456,4.746,4.7402,4.747,4.7502,4.7469,4.7723,4.7651,4.7682,4.7773,4.8028,4.8042,4.8055,4.8137,4.8164,4.8186,0,0,0,0,0,0,4.708,4.715,4.7129,4.7296,4.736,4.7425,4.7511,4.7489,4.7571,4.756,4.7563,4.7581,4.7732,4.7768,4.7685,4.7948,4.7867,4.7887,4.7919,4.7945,4.7965,4.7953,4.7611,0,0,0,0,0,4.7116,4.7213,4.7269,4.741,4.7443,4.7472,4.7528,4.7525,4.7592,4.762,4.7663,4.773,4.7824,4.7887,4.7977,4.8151,4.8167,4.8229,4.8249,4.8266,4.8283,4.8376,4.8404,4.8105,4.8105,4.8105,0,0,4.7193,4.7243,4.7304,4.7427,4.7477,4.7577,4.7495,4.7605,4.7679,4.7637,4.7777,4.7811,4.7886,4.8047,4.812,4.8081,4.8369,4.8283,4.8295,4.8304,4.8393,4.8421,4.8446,4.8114,4.8112,4.8111,0,0,4.7383,4.7432,4.7554,4.7605,4.768,4.7698,4.7728,4.7797,4.7817,4.7958,4.7928,4.8016,4.818,4.8234,4.8283,4.8493,4.8465,4.8522,4.8628,4.8719,4.8742,4.8763,4.8837,4.8864,4.8539,4.854,4.854,0,4.7469,4.7618,4.762,4.7732,4.7786,4.7751,4.7875,4.7924,4.8026,4.8065,4.802,4.8223,4.8271,4.8443,4.8494,4.8536,4.8569,4.8513,4.8739,4.876,4.8779,4.885,4.8878,4.8546,4.8545,4.8545,4.8544,0,4.772,4.7824,4.7913,4.8011,4.8076,4.8193,4.8212,4.8278,4.8271,4.8293,4.8437,4.8493,4.8593,4.8634,4.8629,4.8806,4.8779,4.8737,4.8655,4.8814,4.888,4.8907,4.8555,4.8553,4.8551,4.8549,0,0,4.7964,4.806,4.8093,4.8136,4.8216,4.8297,4.8413,4.8509,4.8565,4.8637,4.8733,4.8872,4.8832,4.8888,4.8888,4.8968,4.9129,4.8915,4.8917,4.8952,4.9327,4.9357,4.9389,4.9112,4.9117,4.9121,4.932,0,4.816,4.8362,4.8366,4.8551,4.8646,4.8614,4.8714,4.8775,4.8799,4.8884,4.8911,4.9009,4.895,4.8983,4.9061,4.9093,4.9204,4.9079,4.9201,4.9205,4.9182,4.9423,4.9457,4.9642,4.9346,4.9351,4.9354,0,4.8416,4.8493,4.8688,4.8753,4.8793,4.8883,4.8971,4.9053,4.9121,4.9133,4.9194,4.9182,4.93,4.9215,4.9378,4.9292,4.9343,4.9366,4.9373,4.9384,4.9288,4.944,4.9701,4.9729,4.9395,4.9391,4.9389,0,4.8573,4.8727,4.8862,4.89,4.898,4.9044,4.908,4.9143,4.92,4.9278,4.9315,4.9406,4.9456,4.9527,4.9539,4.9476,4.9701,4.9618,4.9714,4.9714,4.9762,4.9759,5.0035,4.9797,4.9797,4.9796,4.9796,0,4.8791,4.8911,4.8933,4.9017,4.915,4.9154,4.9285,4.9317,4.9372,4.9461,4.944,4.9524,4.9535,4.9623,4.9633,4.9765,4.9789,4.9801,4.9802,4.9803,4.9801,4.9835,4.9822,4.9804,4.9802,4.9801,4.9799,0,4.8989,4.9009,4.9154,4.9217,4.9236,4.9331,4.9385,4.9465,4.9487,4.9599,4.9626,4.9661,4.9762,4.9781,4.9902,4.9909,5.0065,5.0055,5.0042,5.0041,5.0135,5.0125,5.0441,5.0482,5.0219,5.0222,5.0224,0,4.9126,4.9217,4.9289,4.9346,4.9386,4.9479,4.9537,4.9544,4.9605,4.9689,4.9758,4.9857,4.9936,5.0099,5.0135,5.0227,5.0217,5.0322,5.0231,5.0228,5.0217,5.0211,5.022,5.0339,5.0342,5.0344,5.0346,0,4.9367,4.9372,4.9456,4.9543,4.9613,4.9682,4.9749,4.9797,4.9813,4.9883,4.9986,5.0047,5.0169,5.0267,5.0358,5.0396,5.0374,5.0374,5.0401,5.0401,5.039,5.0396,5.0088,5.0367,5.0365,5.0363,5.0362,5.0361,4.9538,4.9616,4.9679,4.9773,4.9823,4.9885,4.9962,4.9993,5.0078,5.0177,5.0176,5.0288,5.0353,5.0472,5.0516,5.0604,5.0571,5.061,5.062,5.0629,5.0637,5.0377,5.0621,5.062,5.062,5.0619,5.0619,0,4.9776,4.9814,4.99,4.9993,5.0067,5.0038,5.011,5.0173,5.0272,5.0333,5.0411,5.0528,5.0623,5.0666,5.0759,5.0821,5.0814,5.0846,5.0841,5.0849,5.0662,5.0629,5.085,5.085,5.085,5.085,5.085,5.085,4.9908,5.0039,5.0052,5.0208,5.0245,5.0354,5.0397,5.0454,5.0502,5.0634,5.0712,5.0739,5.0793,5.089,5.0975,5.0985,5.102,5.1057,5.1062,5.0886,5.0863,5.084,5.0809,5.1065,5.1065,5.1242,5.1243,5.1245]},{"header":{"parameterUnit":"m.s-1","parameterCategory":1,"la1":30.2991,"la2":30.254,"lo1":-89.0895,"lo2":-89.0444,"dy":0.0017,"dx":0.0017,"nx":28,"ny":28,"refTime":"2025-07-30T21:00:00:Z","depth":0,"parameterNumber":3,"parameterNumberName":"V-component_of_WINDS"},"data":[0,0,0,0,0,0,0,0,0,0,0,0,0,0,0,0,0,0,0,0,0,0,0,0,0,0,0,0,0,0,0,0,0,0,0,0,0,0,0,0,0,0,0,0,0,0,0,0,0,0,0,0,0,0,0,0,0,0,0.9115,0.9115,0,0.9093,0.9093,0.9093,0.9045,0.9044,0.9043,0.9042,0.902,0.9021,0.9021,0,0,0,0,0,0,0,0,0,0,0,0,0,0.9115,0.9115,0.9115,0.9115,0.9115,0.9093,0.9093,0.9093,0.9045,0.9044,0.9043,0.9042,0.902,0.9021,0.9021,0,0,0,0,0,0,0,0,0,0,0,0,0,0.9106,0.9115,0.9115,0.9088,0.9086,0.9093,0.9093,0.9093,0.9046,0.9044,0.9043,0.9041,0.902,0.9021,0.9021,0.9053,0,0,0.9022,0.9023,0,0,0,0,0,0,0,0,0.9107,0.9106,0.9093,0.909,0.9087,0.9071,0.9085,0.9079,0.9046,0.9061,0.9042,0.9041,0.9038,0.9037,0.9036,0.9052,0.9051,0.9023,0.9023,0.9023,0.9023,0,0,0,0,0,0,0,0.9108,0.9107,0.9106,0.9093,0.9089,0.9077,0.9074,0.9084,0.9058,0.906,0.9056,0.9054,0.9037,0.9036,0.9035,0.9051,0.9023,0.9023,0.9023,0.9023,0.909,0.9092,0,0,0,0,0,0,0.9112,0.9108,0.9107,0.9106,0.9094,0.9078,0.9075,0.9077,0.9058,0.9053,0.9055,0.9052,0.9036,0.9035,0.9034,0.907,0.9023,0.9023,0.9024,0.9089,0.909,0.9092,0,0,0,0,0,0,0.9112,0.9113,0.9108,0.9106,0.9104,0.908,0.9083,0.9078,0.9077,0.9055,0.905,0.906,0.9035,0.9034,0.9048,0.9069,0.9024,0.9024,0.9087,0.9089,0.9091,0.9142,0,0,0,0,0,0,0.9113,0.9113,0.9125,0.9107,0.9105,0.9123,0.9084,0.9078,0.9078,0.9073,0.9057,0.9053,0.9033,0.9048,0.9049,0.9068,0.9024,0.9085,0.9088,0.9091,0.9138,0.9145,0.9152,0,0,0,0,0,0.9113,0.9141,0.9126,0.9126,0.912,0.9124,0.9123,0.91,0.908,0.9092,0.9077,0.9054,0.9066,0.905,0.9051,0.907,0.9084,0.9087,0.909,0.9135,0.9144,0.9151,0,0,0,0,0,0,0.9163,0.9138,0.9121,0.9144,0.9137,0.9116,0.9131,0.911,0.9108,0.9104,0.9075,0.9072,0.909,0.9082,0.9064,0.91,0.9071,0.9075,0.9105,0.9113,0.912,0.9122,0.9025,0,0,0,0,0,0.9176,0.9182,0.916,0.9182,0.9179,0.9156,0.9157,0.9139,0.913,0.9127,0.9114,0.9106,0.9108,0.911,0.911,0.9136,0.9132,0.915,0.9157,0.9162,0.9166,0.9178,0.9186,0.9103,0.9103,0.9103,0,0,0.9204,0.9191,0.9197,0.9192,0.9184,0.919,0.9153,0.9162,0.9167,0.9128,0.9141,0.9131,0.912,0.9141,0.9149,0.9134,0.9188,0.9167,0.9171,0.9172,0.9183,0.9191,0.9198,0.9105,0.9105,0.9105,0,0,0.9259,0.925,0.9267,0.926,0.9248,0.9232,0.9236,0.9219,0.921,0.9223,0.9194,0.9199,0.9203,0.9196,0.9193,0.9244,0.9222,0.9245,0.928,0.9293,0.9299,0.9305,0.9323,0.933,0.9249,0.9249,0.9249,0,0.9296,0.9305,0.9279,0.9289,0.9287,0.9252,0.9269,0.9263,0.9252,0.9252,0.9235,0.9239,0.9229,0.9247,0.9259,0.9258,0.9262,0.9247,0.93,0.9306,0.9311,0.9327,0.9334,0.9252,0.9251,0.9251,0.9251,0,0.935,0.9357,0.9372,0.9362,0.9362,0.9375,0.9351,0.9353,0.9336,0.9321,0.9334,0.9321,0.9318,0.932,0.9303,0.9336,0.9327,0.9306,0.9276,0.9322,0.9337,0.9343,0.9256,0.9255,0.9254,0.9253,0,0,0.9437,0.9412,0.9418,0.9412,0.9396,0.9401,0.9412,0.9409,0.9412,0.9405,0.9414,0.9417,0.9397,0.9394,0.9376,0.9386,0.9427,0.9364,0.9363,0.9376,0.9461,0.9477,0.9485,0.9412,0.9413,0.9414,0.9462,0,0.9489,0.9507,0.9483,0.9507,0.9512,0.9478,0.9488,0.9479,0.9465,0.9467,0.9452,0.9455,0.9429,0.9426,0.9435,0.942,0.9444,0.9416,0.942,0.942,0.9424,0.9493,0.951,0.9556,0.9468,0.9469,0.9469,0,0.9551,0.9547,0.9571,0.9552,0.9554,0.9563,0.9558,0.956,0.9549,0.9538,0.9534,0.9512,0.9521,0.9492,0.9504,0.9486,0.9486,0.9478,0.948,0.9479,0.9448,0.9495,0.957,0.9577,0.9478,0.9478,0.9477,0,0.9612,0.9612,0.9627,0.9623,0.9602,0.9609,0.96,0.9588,0.9587,0.9582,0.9581,0.9577,0.9575,0.9573,0.955,0.9531,0.9564,0.9534,0.9556,0.9556,0.9565,0.9565,0.9642,0.9564,0.9564,0.9564,0.9564,0,0.9672,0.9688,0.9653,0.9662,0.9679,0.9651,0.9668,0.9656,0.9644,0.965,0.962,0.9626,0.9595,0.9597,0.9579,0.9592,0.9591,0.9582,0.9578,0.9585,0.9587,0.9585,0.9582,0.9566,0.9566,0.9565,0.9565,0,0.9743,0.9721,0.9734,0.9712,0.9707,0.972,0.9701,0.9708,0.9692,0.97,0.97,0.9674,0.9675,0.9652,0.9648,0.9636,0.9657,0.9646,0.9661,0.9657,0.968,0.9679,0.976,0.9769,0.9686,0.9686,0.9687,0,0.9783,0.9795,0.9774,0.9775,0.9768,0.9771,0.977,0.9742,0.9742,0.9729,0.9737,0.9736,0.9733,0.9736,0.9717,0.9714,0.9703,0.9732,0.9703,0.971,0.9704,0.9703,0.9704,0.9738,0.9739,0.974,0.9741,0,0.9857,0.9845,0.9844,0.9839,0.9838,0.9833,0.9826,0.9829,0.9799,0.98,0.98,0.9798,0.9794,0.9793,0.9786,0.9776,0.9754,0.975,0.9755,0.9763,0.9771,0.9767,0.9678,0.9748,0.9748,0.9747,0.9747,0.9746,0.9913,0.9921,0.9908,0.9908,0.9899,0.9893,0.9899,0.9883,0.9883,0.9877,0.986,0.9863,0.985,0.9839,0.9831,0.9833,0.9819,0.9826,0.9828,0.983,0.9834,0.977,0.9832,0.9831,0.9831,0.9831,0.9831,0,0.9985,0.9974,0.9974,0.9965,0.9965,0.9943,0.9933,0.9935,0.9938,0.9928,0.9925,0.9925,0.9924,0.9904,0.99,0.9905,0.9894,0.9905,0.9905,0.9903,0.9847,0.9844,0.9914,0.9914,0.9914,0.9914,0.9914,0.9914,1.0022,1.0035,1.0021,1.0029,1.0017,1.002,1.0017,1.0011,1.0002,1.0004,1.0002,0.9989,0.9975,0.9969,0.9966,0.9961,0.9961,0.9975,0.9966,0.9915,0.9907,0.9899,0.9895,0.9975,0.9975,1.002,1.0021,1.0021]}]]